Overview Statistics Trail Chart Weather Telemetry Raw packets
 

This is the latest recevied weather packets stored in our database for station/object W4UWO. If no packets are shown the sender has not sent any weather packets the latest 10 day(s).

<< 100 101 102 103 104 105 106 >>
Time Temp. Humidity Pressure Rain* Wind** Luminosity Snow
1787870232 31.67° C 52% 1015 hPa 0 mm - 206 W/m² -
1787869927 32.22° C 51% 1014.9 hPa 0 mm - 251 W/m² -
1787869626 32.78° C 48% 1014.8 hPa 0 mm - 274 W/m² -
1787869321 32.22° C 48% 1014.8 hPa 0 mm - 317 W/m² -
1787869020 31.67° C 48% 1014.9 hPa 0 mm - 306 W/m² -
1787868719 31.11° C 51% 1014.9 hPa 0 mm - 306 W/m² -
1787868418 31.11° C 50% 1015 hPa 0 mm - 136 W/m² -
1787868113 31.67° C 50% 1015 hPa 0 mm - 97 W/m² -
1787867808 32.22° C 49% 1015 hPa 0 mm - 339 W/m² -
1787867503 32.22° C 49% 1015.2 hPa 0 mm - 277 W/m² -
1787867203 32.78° C 47% 1015.2 hPa 0 mm - 194 W/m² -
1787866899 32.78° C 48% 1015 hPa 0 mm - 394 W/m² -
1787866594 32.78° C 47% 1015.1 hPa 0 mm - 427 W/m² -
1787866292 32.78° C 47% 1015.1 hPa 0 mm - 448 W/m² -
1787865987 32.78° C 47% 1015.1 hPa 0 mm - 454 W/m² -
1787865683 32.22° C 49% 1014.9 hPa 0 mm - 473 W/m² -
1787865383 32.78° C 50% 1014.9 hPa 0 mm - 475 W/m² -
1787865078 32.78° C 50% 1015.2 hPa 0 mm - 496 W/m² -
1787864774 32.78° C 52% 1015.1 hPa 0 mm - 509 W/m² -
1787864468 32.78° C 51% 1015 hPa 0 mm - 526 W/m² -
1787864168 33.33° C 49% 1015.1 hPa 0 mm - 547 W/m² -
1787863862 32.78° C 51% 1014.8 hPa 0 mm - 560 W/m² -
1787863560 32.78° C 50% 1015 hPa 0 mm - 577 W/m² -
1787863256 32.22° C 51% 1014.9 hPa 0 mm - 595 W/m² -
1787862951 32.22° C 52% 1015.1 hPa 0 mm - 211 W/m² -

* Rain latest hour (hover to see other rain measurements)
** Current wind speed in m/s (hover to see current wind gust speed)